Theta_e
289 289 289 289 289 290 291 292 292 292 292 293 294 294 295 295 295 295 295 295 296 296 296 295 295 295 295 295 294 293 293 293 293 292 293 291 290 290 289 288 288 288 288 287 287 286 285 284 284 284 284 284 284 283 283 281 282 283 282 281 281 281
289 289 289 290 290 290 290 291 291 292 293 292 293 293 293 293 293 294 294 294 295 295 294 294 295 295 295 294 294 293 293 294 293 292 291 292 291 290 290 289 288 287 287 287 286 285 285 284 284 284 284 283 284 284 283 282 282 282 282 281 281 281
289 289 288 289 288 288 289 290 291 292 292 293 293 293 293 293 294 294 295 295 295 294 294 294 294 294 294 293 293 293 293 293 293 293 293 291 290 290 289 288 288 287 287 286 286 286 285 284 284 283 283 283 283 283 283 281 282 282 282 281 280 279
288 288 286 286 286 289 289 290 290 291 292 293 293 293 293 293 294 294 295 295 295 294 295 295 295 295 293 293 293 293 293 293 293 293 291 291 290 289 289 288 288 287 287 286 286 285 285 284 284 283 283 283 283 282 283 282 281 282 281 280 280 279
288 288 288 288 288 290 290 290 291 292 292 292 293 293 294 294 294 294 294 294 294 294 295 295 294 293 293 293 293 293 293 293 293 292 291 291 290 289 289 288 287 287 286 286 285 285 284 284 284 283 283 283 283 283 282 282 282 282 282 280 281 279
287 286 287 288 288 289 289 290 291 291 292 293 292 293 294 294 294 293 293 293 293 294 293 294 294 293 293 293 294 293 293 293 292 290 291 290 289 288 288 288 287 286 286 286 285 284 285 284 284 283 283 283 283 283 283 282 282 282 282 282 281 280
290 290 289 288 289 289 289 290 291 291 292 292 292 293 294 294 293 293 292 292 292 292 292 293 292 293 292 293 293 293 292 292 291 290 290 289 289 289 288 287 286 286 285 285 285 285 284 284 284 283 283 283 283 283 283 282 282 282 282 282 281 281
290 289 289 290 289 289 290 290 290 291 292 292 292 293 292 293 292 293 292 292 292 292 291 292 291 291 292 292 292 292 292 292 291 290 289 290 290 289 288 288 286 286 285 285 285 285 284 284 283 283 283 283 282 282 282 282 282 282 282 281 281 280
289 290 289 289 289 289 289 289 290 290 291 291 291 292 292 292 291 292 292 292 292 292 291 291 291 292 292 292 292 292 291 290 290 290 290 289 290 289 287 286 286 285 285 285 285 284 284 283 283 283 283 282 282 282 282 281 281 281 281 281 280 280
289 289 289 288 289 289 288 289 290 290 290 290 290 289 290 291 290 291 290 290 290 290 291 291 291 291 292 291 290 290 290 289 289 289 289 287 288 288 287 286 286 285 285 285 285 284 284 283 283 282 282 282 282 282 281 281 281 281 280 280 279 279
289 289 289 289 287 288 288 288 288 288 289 289 289 289 290 289 289 289 289 289 289 290 290 290 290 289 289 289 288 288 289 289 288 288 287 287 287 287 287 287 286 285 284 284 284 283 283 283 283 283 282 282 281 281 281 280 280 280 280 279 279 278
288 288 288 287 287 287 287 288 288 288 289 289 288 289 289 288 289 289 289 289 290 290 290 290 289 289 289 288 288 289 289 288 288 287 287 287 287 287 286 286 285 285 285 284 283 283 283 283 283 284 286 285 283 281 281 281 280 280 279 279 278 277
287 287 286 287 287 287 287 288 288 288 287 288 288 289 289 288 288 288 289 289 290 290 289 288 288 288 288 288 288 288 287 287 286 286 286 286 285 285 285 285 284 284 284 284 284 283 283 283 283 285 287 287 287 283 281 280 280 279 279 279 278 278
287 286 286 287 286 286 286 287 288 286 288 288 288 289 287 287 288 288 288 289 288 288 288 287 287 286 287 286 287 286 286 285 285 285 285 285 284 284 284 284 285 285 284 284 284 283 283 283 285 287 287 288 288 286 282 280 280 279 279 279 278 278
288 287 286 286 286 286 286 287 287 288 289 288 288 286 286 287 287 288 288 287 287 287 286 286 286 286 286 286 286 285 285 285 285 285 285 285 285 284 284 284 284 284 284 284 284 283 283 283 286 287 287 288 288 288 285 281 280 280 279 278 278 278
287 287 286 286 286 286 286 285 287 289 288 287 285 286 287 287 287 287 287 287 287 286 286 286 286 286 286 285 285 284 284 285 285 286 286 285 284 284 284 284 284 284 284 284 284 283 283 283 285 287 287 287 288 288 287 282 280 280 279 278 278 278
286 285 285 285 285 285 283 284 284 286 285 285 286 286 286 286 287 286 287 287 286 286 286 286 286 286 286 285 285 284 285 285 286 285 285 285 285 284 284 284 284 284 284 283 283 283 283 283 285 286 287 287 288 288 288 283 281 279 279 278 278 278
285 285 286 286 284 284 283 285 283 284 286 284 286 285 286 286 286 287 286 286 286 286 286 286 286 286 286 285 284 284 285 285 285 285 284 284 284 284 284 284 284 284 283 283 283 283 283 283 286 286 287 287 288 288 286 283 281 279 278 278 278 278
284 285 284 285 285 285 284 283 284 285 284 284 284 284 285 285 286 286 286 286 286 285 285 285 286 285 285 285 284 284 285 285 284 284 284 283 283 283 283 283 283 283 283 283 283 282 283 282 285 286 286 287 288 287 285 283 281 279 278 277 277 277
283 282 283 284 284 283 283 283 284 283 284 284 284 284 284 284 286 286 285 284 284 284 283 284 285 285 284 284 284 285 285 285 285 284 284 284 283 283 283 283 283 282 282 282 282 282 282 282 283 286 286 287 287 286 284 283 281 279 277 276 276 276
283 283 282 282 284 285 283 284 284 284 284 284 283 284 285 285 285 285 285 284 284 284 285 285 285 286 285 285 285 285 285 285 285 284 283 283 283 283 282 281 281 281 281 281 282 282 281 282 282 285 286 286 287 286 284 283 280 278 276 275 274 274
282 283 283 283 283 283 283 283 282 283 284 284 282 283 284 284 285 285 285 285 285 285 285 285 285 285 285 285 285 284 284 284 283 282 282 281 281 281 280 280 280 280 280 280 280 281 281 281 281 282 285 286 286 287 285 283 279 277 275 274 274 273
281 282 281 280 281 281 281 281 282 282 282 281 282 282 282 283 283 283 283 283 283 283 283 283 284 284 284 284 284 284 283 283 282 282 281 281 280 280 280 280 279 279 280 280 279 279 280 280 280 281 284 285 286 287 286 282 280 278 276 275 274 274
281 281 281 281 281 280 281 281 283 282 281 281 282 282 283 282 282 282 282 282 282 282 282 282 282 283 284 282 282 282 282 281 281 281 280 279 279 279 279 278 278 278 278 278 278 278 279 279 280 280 282 284 285 286 287 283 280 279 277 275 274 274
281 280 280 280 280 280 281 282 281 280 281 279 278 280 281 280 281 281 280 280 281 280 280 280 280 281 281 281 280 280 281 279 278 278 278 278 277 277 277 277 277 276 276 275 275 275 276 277 278 281 280 283 285 285 286 286 283 282 278 276 274 274
280 280 278 278 278 278 279 280 280 279 278 276 276 277 278 279 278 278 278 277 277 277 277 277 278 278 278 278 279 278 278 277 276 276 276 276 276 275 275 275 274 274 274 274 273 273 273 274 276 279 280 281 283 284 286 286 285 282 278 277 275 275
280 278 276 275 274 274 273 275 276 275 273 273 274 274 275 276 276 276 275 275 274 274 273 273 274 273 273 273 276 276 275 274 273 273 272 273 273 274 274 275 274 274 274 273 273 273 274 275 276 277 279 281 281 283 284 285 286 284 282 277 276 275
277 275 273 272 272 271 271 271 271 270 271 272 272 273 274 274 273 273 272 271 271 271 269 271 272 271 271 272 273 275 275 275 274 274 272 272 272 273 273 273 274 274 275 275 275 274 274 274 275 275 276 278 280 281 282 284 285 283 281 278 276 276
274 272 271 270 270 270 269 269 269 269 269 270 271 271 271 271 271 271 271 270 271 270 271 272 272 272 273 272 272 272 273 274 274 273 273 272 273 274 275 275 275 274 274 273 274 273 273 272 273 274 275 276 277 278 279 281 282 282 280 277 275 276
271 270 269 268 268 268 268 267 267 267 268 269 269 270 270 270 270 269 269 269 269 269 269 269 271 272 271 271 271 271 272 272 273 273 274 274 275 274 274 274 274 274 274 273 273 272 272 272 272 273 274 275 276 276 278 278 279 278 277 275 273 274
268 268 267 267 267 267 266 266 266 266 267 267 268 269 269 270 268 268 268 268 269 269 269 269 269 269 269 270 270 270 271 270 271 272 272 273 274 273 273 273 273 274 274 274 273 272 271 271 271 272 276 275 277 276 276 277 276 276 276 274 275 272
266 266 266 266 266 265 265 265 265 265 266 267 267 268 268 269 269 268 268 268 268 268 268 268 268 268 269 268 268 268 269 273 274 274 271 269 274 275 276 277 272 273 273 273 273 274 272 272 273 275 276 276 277 278 279 279 279 278 276 276 277 273
265 265 264 265 264 264 263 263 264 263 264 266 266 267 267 268 268 268 268 267 267 268 267 267 267 267 267 268 267 267 267 266 270 274 274 273 274 274 275 276 276 276 275 273 271 273 276 275 275 276 276 277 278 278 279 279 280 280 278 278 275 271
264 264 263 264 263 263 262 262 262 262 263 265 265 266 266 266 266 266 266 266 266 267 267 266 267 266 266 266 267 267 266 266 266 267 272 273 272 273 274 275 276 276 276 276 274 271 271 275 276 276 276 276 276 277 278 279 280 280 279 278 277 269
264 263 263 262 262 262 262 261 261 262 262 263 264 265 265 265 265 265 265 266 266 266 266 265 265 265 265 265 265 265 266 265 265 265 265 268 272 273 273 273 274 274 275 276 276 276 274 274 275 276 276 276 276 277 276 278 279 280 279 279 274 269
263 262 262 261 261 261 261 261 261 260 261 262 263 264 264 264 264 264 264 264 264 264 264 265 264 263 263 264 264 264 263 263 263 262 263 264 265 267 269 271 272 272 273 273 274 274 275 275 275 275 275 275 275 276 277 277 276 279 279 278 273 270
261 262 262 261 261 261 261 260 261 260 261 262 262 263 263 263 263 263 264 264 264 263 263 263 263 263 262 263 262 262 262 262 263 263 262 262 262 263 263 264 265 268 270 270 272 273 274 274 274 274 274 274 275 276 276 277 274 273 274 275 273 270
261 261 261 261 260 260 259 259 260 260 261 261 261 262 262 262 262 262 262 262 262 262 262 262 262 263 262 261 261 262 262 262 262 262 262 262 261 261 261 262 262 262 265 269 269 270 271 272 273 273 273 273 274 275 276 272 271 271 271 272 269 267
Wind_Speed
6 5 6 5 6 7 7 7 6 6 7 7 8 11 13 12 10 9 9 9 9 9 10 11 10 9 9 8 6 6 8 9 8 8 9 6 7 8 8 8 8 8 8 7 6 5 5 4 4 4 5 5 6 4 5 3 5 5 6 5 6 6
6 6 6 6 6 6 6 6 5 7 7 7 9 8 6 6 7 7 9 9 9 8 6 7 8 9 9 9 8 8 10 10 9 9 8 11 8 8 9 8 8 8 8 7 7 7 6 6 5 6 6 6 6 6 6 5 6 6 7 6 5 6
7 6 5 5 5 5 4 5 8 8 6 9 9 10 9 9 10 9 11 9 11 9 10 10 10 11 10 8 8 9 10 9 9 10 11 6 8 8 8 8 9 9 9 8 8 8 8 8 7 7 7 7 7 7 7 6 7 7 6 6 6 4
7 5 4 4 4 6 7 7 6 8 10 10 8 8 9 10 10 11 11 10 9 11 11 12 10 10 8 10 10 11 11 10 11 11 6 8 8 8 9 9 8 7 8 8 8 8 8 8 9 9 8 9 9 8 6 8 9 8 7 6 8 7
9 7 5 6 7 8 7 7 9 10 9 8 9 10 12 10 10 7 7 8 9 11 11 11 10 9 11 12 11 11 12 11 10 6 9 8 7 7 8 9 9 8 8 8 8 9 9 10 10 9 10 10 11 11 9 9 10 10 10 10 10 10
8 6 6 7 7 7 9 9 8 8 8 9 8 12 13 9 8 8 8 8 9 9 8 9 9 10 10 11 10 12 11 9 7 6 8 7 6 8 8 8 9 8 9 10 9 10 10 10 10 10 10 12 12 11 12 10 11 11 11 11 11 10
10 10 7 7 6 5 7 7 8 9 10 9 11 12 10 9 8 9 9 9 11 10 10 10 9 10 11 11 9 11 9 8 8 7 8 7 8 8 8 8 7 9 9 10 11 11 11 11 9 9 10 9 8 9 9 10 10 10 10 10 10 9
10 11 10 9 8 7 6 7 7 8 9 11 10 9 8 10 8 9 9 10 11 11 11 10 9 9 9 10 9 9 9 9 8 7 7 9 10 9 9 9 7 8 10 9 10 9 9 8 9 10 10 10 8 8 8 8 9 9 9 9 8 9
14 12 11 10 9 7 6 6 7 7 7 8 7 8 7 6 7 8 9 9 10 9 10 10 11 10 11 10 10 8 7 8 8 8 9 8 9 8 7 6 7 7 8 9 8 9 10 9 9 10 10 10 9 9 9 9 9 9 9 8 8 8
13 13 13 11 10 8 7 7 8 7 7 8 5 5 5 5 7 7 6 5 6 6 6 7 7 8 8 7 7 7 7 7 7 8 7 7 8 9 9 10 10 10 9 10 10 10 9 9 10 10 10 9 10 9 10 10 9 9 8 7 7 7
12 12 12 11 8 9 9 7 7 7 7 6 6 6 8 7 6 6 7 7 9 10 9 8 7 7 7 7 7 8 9 9 9 8 9 9 9 9 10 10 10 10 11 9 9 9 9 9 10 10 10 10 10 10 10 10 9 9 9 8 7 7
12 11 10 10 10 10 8 7 7 7 8 7 6 8 8 7 9 8 9 10 12 10 10 10 8 9 9 9 10 11 10 9 9 9 9 10 9 9 9 8 9 10 11 10 10 9 9 10 9 12 15 13 11 12 10 9 10 10 10 10 9 9
11 10 10 11 10 10 9 8 8 6 6 6 7 8 6 7 8 9 9 12 11 10 8 8 8 7 9 10 8 7 7 8 6 7 8 8 7 8 7 7 9 9 8 10 10 11 10 10 10 15 17 20 19 12 11 11 11 10 11 11 11 11
12 10 10 10 9 8 8 8 7 5 7 7 8 7 6 7 8 9 10 11 6 6 7 7 5 6 8 5 7 6 5 5 6 7 8 7 8 7 5 8 10 9 9 9 9 11 10 10 10 16 18 19 19 16 12 10 10 10 11 11 11 10
11 10 10 8 8 8 9 8 6 7 7 7 6 4 7 8 9 9 9 7 6 6 6 6 7 8 8 8 7 6 6 7 8 9 9 11 9 6 9 11 9 10 9 10 11 11 10 10 11 17 18 18 19 19 14 10 10 10 11 11 12 11
10 9 8 9 9 8 7 5 7 8 6 6 4 7 7 8 8 9 9 7 8 7 7 8 9 9 9 7 7 7 8 9 12 10 9 7 6 9 10 9 10 9 10 10 10 10 9 10 10 17 17 18 19 19 17 11 11 11 11 12 12 11
9 8 9 8 8 7 5 5 5 6 5 4 5 7 8 8 8 9 9 9 9 8 9 9 9 10 8 8 8 8 9 11 10 9 8 8 9 9 10 10 10 10 9 9 9 9 9 10 13 16 18 18 19 19 16 11 9 10 10 10 11 11
8 7 9 6 5 6 4 6 3 4 6 4 6 6 7 8 9 10 9 10 10 10 9 10 10 9 7 7 7 8 10 10 10 9 6 6 6 6 6 7 7 9 8 8 9 9 11 9 12 15 17 18 18 19 12 10 11 10 10 10 10 10
5 7 5 7 7 6 5 5 4 4 4 4 5 4 5 6 8 10 9 9 7 6 6 7 7 7 7 6 7 9 10 8 7 6 5 6 7 7 8 9 8 7 8 9 9 10 10 8 10 15 17 18 20 15 10 10 9 10 10 10 9 10
6 6 4 7 8 5 4 4 3 4 4 4 3 4 5 6 10 6 3 3 1 2 3 4 5 6 6 6 9 10 8 6 5 6 6 8 8 9 9 7 6 7 7 8 10 10 10 9 10 15 17 19 20 17 11 10 10 10 9 8 7 7
7 8 4 3 7 7 4 2 2 3 4 3 3 3 5 5 3 3 2 2 2 4 5 6 6 6 7 8 9 8 7 7 7 5 5 7 6 7 4 5 6 6 6 7 8 9 11 9 8 14 17 19 20 16 10 9 8 9 8 8 7 6
8 8 5 5 6 5 4 1 1 4 4 4 3 3 4 3 2 3 4 4 4 4 5 5 6 6 7 8 6 5 6 4 4 5 6 6 6 6 6 6 6 7 7 6 7 8 8 9 7 9 17 18 20 21 12 9 9 10 9 9 10 7
4 6 5 4 4 5 4 2 1 3 2 1 1 1 2 3 3 2 2 2 2 3 3 3 4 6 6 5 5 4 4 4 5 5 5 6 5 5 6 6 6 7 7 5 6 6 7 7 7 7 15 18 20 22 19 10 11 10 10 10 11 10
3 3 4 6 7 6 4 3 2 2 1 3 4 5 5 4 3 1 1 1 1 1 1 2 3 3 4 3 3 3 4 3 4 4 5 5 5 6 7 5 6 6 6 5 5 6 6 6 9 7 12 18 20 20 23 13 11 10 9 10 10 11
3 5 6 6 7 6 5 4 4 3 3 7 7 7 5 3 3 3 2 2 2 3 2 2 2 3 2 2 3 3 3 2 3 3 3 5 5 5 6 6 5 5 6 5 5 4 4 5 6 10 8 13 18 20 21 23 15 14 11 10 12 14
3 5 7 7 8 8 8 5 5 5 6 7 7 7 6 5 3 3 3 4 4 3 3 3 2 1 1 1 1 1 2 2 3 3 4 4 5 5 5 5 4 4 5 6 5 4 3 3 4 5 9 9 16 19 21 23 18 17 12 11 10 10
5 6 8 8 9 9 8 8 6 7 8 7 7 7 7 5 4 5 4 5 4 3 3 3 3 3 3 2 0 1 1 2 1 3 2 3 3 4 5 5 4 5 6 5 6 5 4 4 4 4 6 10 12 17 20 22 21 19 18 12 8 9
6 8 8 8 9 8 8 8 8 8 6 7 7 7 7 5 4 5 4 4 4 4 3 4 4 4 2 2 1 0 1 2 2 3 2 3 3 4 5 5 5 5 5 5 4 4 4 4 4 4 3 4 7 9 16 20 21 18 18 15 11 12
6 7 7 8 8 7 7 8 7 7 6 7 7 7 6 4 4 4 4 5 5 4 5 5 4 4 4 4 3 3 2 1 0 1 2 2 4 4 4 4 4 4 4 5 4 3 3 3 3 4 3 4 5 8 9 10 11 12 12 8 6 8
8 7 7 7 7 6 7 7 7 8 7 7 7 7 5 5 5 5 5 5 4 4 4 4 5 5 4 5 5 5 5 5 4 3 2 2 1 2 3 3 3 4 4 4 3 2 2 3 4 4 6 7 7 6 6 7 6 5 7 7 7 8
7 7 7 7 6 6 6 6 7 7 8 8 7 7 5 5 4 4 4 4 5 5 4 4 5 5 5 4 5 5 4 3 3 3 2 3 2 3 2 2 3 1 1 2 3 4 4 4 5 7 6 6 8 7 7 7 6 5 6 9 12 8
7 7 7 6 6 6 6 6 7 7 7 7 7 7 6 5 4 5 5 5 5 5 5 5 5 5 5 5 4 3 4 6 8 5 4 2 5 6 6 5 1 1 1 1 3 3 6 7 5 5 10 11 12 13 14 12 11 11 8 12 20 13
7 7 8 6 6 6 7 7 8 7 8 8 8 7 6 5 4 5 5 6 6 6 5 5 5 5 4 4 4 4 3 3 5 7 8 6 6 6 6 5 5 3 2 3 3 4 4 6 6 7 10 13 15 15 15 16 17 16 16 19 13 9
7 7 7 6 6 7 7 8 9 9 8 9 8 7 7 7 5 5 5 5 5 6 6 5 5 5 6 6 5 6 5 5 5 6 6 8 7 9 9 8 7 6 6 6 4 3 3 6 8 10 10 10 12 14 16 17 18 18 19 21 21 11
6 6 6 6 6 7 7 9 9 9 9 9 9 8 8 9 8 7 7 7 6 6 7 7 7 6 6 6 6 6 5 5 5 5 7 7 7 7 8 9 10 11 11 10 8 7 6 5 7 9 10 10 12 13 14 16 18 18 19 22 14 9
7 7 7 7 7 7 8 9 9 10 10 9 9 9 9 9 9 8 7 6 6 7 6 6 6 5 5 5 5 5 5 5 5 5 5 6 7 7 7 9 12 13 13 13 14 11 7 7 8 8 8 9 10 12 14 14 12 17 19 18 11 9
7 7 8 8 8 8 8 10 10 9 9 10 10 9 9 10 9 7 8 12 8 5 5 5 5 5 5 5 5 5 5 5 5 5 5 5 5 6 7 7 7 10 13 11 9 11 11 8 7 8 9 9 10 12 13 14 8 8 8 9 8 8
8 7 8 8 8 8 9 9 10 9 9 10 9 9 8 8 7 6 6 6 7 6 5 5 5 5 5 5 5 4 4 5 5 5 5 4 4 5 5 5 5 4 7 10 10 16 14 12 9 8 8 9 11 12 13 7 6 5 5 6 1 3
Wind_Direction
280 271 250 234 226 222 222 220 214 224 227 221 212 211 212 207 202 203 208 206 208 209 208 205 206 210 213 214 205 181 195 204 203 198 208 195 189 189 186 193 195 196 202 199 202 188 193 181 183 172 176 178 188 185 195 170 171 174 176 179 168 174
267 259 255 251 237 234 230 224 214 218 222 221 222 226 218 212 208 203 210 206 209 211 202 205 206 210 210 206 194 194 202 207 200 204 201 209 191 196 195 192 194 194 196 197 191 187 185 186 185 177 182 182 195 185 187 189 179 188 187 182 182 171
279 269 254 255 256 246 237 221 217 216 210 222 220 217 214 210 208 199 210 199 207 202 201 200 201 207 204 200 196 203 208 207 204 207 212 185 198 189 191 195 197 195 197 191 194 190 189 186 185 183 182 189 196 192 190 179 190 194 194 179 185 188
279 273 267 264 258 250 238 224 216 220 215 216 215 217 219 213 212 206 207 202 199 200 204 205 203 201 193 200 200 206 208 209 208 210 193 198 201 183 197 197 196 196 192 192 196 193 191 191 191 185 184 193 196 196 187 186 190 196 192 186 192 189
271 272 259 254 241 245 237 227 218 220 217 212 214 211 224 213 217 210 209 207 204 208 208 206 201 193 199 201 205 209 211 213 214 193 197 203 193 193 195 195 195 192 190 195 197 193 196 197 196 189 190 197 195 195 194 191 190 194 191 194 198 189
279 276 261 247 243 241 238 232 226 222 220 214 207 216 223 211 211 201 198 204 214 215 213 211 204 199 203 206 208 212 214 212 208 188 202 198 186 194 199 195 193 188 191 198 199 199 202 199 198 194 198 200 197 197 197 192 196 199 200 199 194 186
292 289 285 275 267 251 242 239 231 224 223 211 212 220 215 209 201 200 202 201 207 207 209 213 204 207 207 211 209 215 209 208 202 191 197 188 197 200 194 201 190 194 194 201 204 204 206 205 198 201 206 209 206 205 202 200 201 204 205 204 198 191
296 296 292 294 283 272 267 255 246 240 233 224 216 219 209 212 195 203 202 204 206 208 206 207 203 211 212 214 215 213 207 204 199 195 199 193 203 204 201 196 192 197 203 208 211 208 210 203 200 205 207 206 204 206 207 205 207 209 209 206 202 197
283 283 286 279 282 278 269 264 259 251 250 252 235 228 218 210 200 207 209 212 214 216 213 203 205 203 209 210 213 210 206 204 201 198 205 198 206 203 197 197 196 203 204 211 207 207 205 201 201 205 207 205 203 204 204 206 207 209 210 210 205 199
281 282 279 282 276 274 263 246 240 238 232 239 240 245 236 218 205 210 215 217 228 231 227 221 218 216 216 213 209 207 205 201 200 204 202 188 202 202 197 195 198 203 201 208 206 207 200 199 203 207 206 205 202 201 208 206 206 208 210 210 204 202
272 276 279 278 279 270 264 257 248 239 243 234 219 202 214 205 204 206 205 208 218 219 214 212 209 210 210 204 203 203 204 202 202 198 197 197 202 201 202 198 194 199 207 207 205 202 197 201 206 204 202 201 202 202 206 205 206 205 207 205 204 204
270 271 274 277 273 272 269 262 254 241 235 232 216 217 211 179 203 200 204 210 216 213 208 206 203 202 202 202 204 209 203 203 201 198 201 205 205 204 201 197 199 204 207 203 205 203 200 208 208 207 198 196 199 199 201 199 203 201 201 201 201 205
271 273 271 267 268 266 264 256 251 245 236 230 219 219 207 189 203 207 208 218 217 212 205 201 209 201 208 210 210 209 204 206 199 204 211 211 207 208 202 195 206 212 208 209 206 207 211 212 212 204 203 204 200 193 198 199 202 200 201 202 200 205
274 270 265 265 262 260 259 259 251 239 239 227 225 214 179 190 205 211 218 225 218 209 205 209 204 210 220 209 216 207 205 198 201 211 213 210 210 207 187 205 213 211 210 212 214 215 216 219 208 205 208 206 203 195 199 202 203 200 204 203 204 206
269 268 267 266 259 254 248 241 249 240 236 231 223 165 182 199 206 214 224 223 211 211 203 198 202 212 213 210 203 198 191 200 208 214 210 212 206 184 201 215 210 216 212 211 216 221 218 224 203 209 209 207 206 202 195 209 206 204 207 204 204 203
272 269 262 265 269 259 264 231 230 242 229 216 178 183 196 198 212 212 221 209 209 204 197 198 202 212 213 199 195 192 199 203 214 215 211 207 189 201 212 214 215 215 214 214 216 222 221 223 209 209 208 207 205 204 199 213 208 211 210 206 203 203
267 275 281 274 265 272 266 263 236 252 241 191 191 197 192 202 208 214 215 212 209 199 200 199 203 211 205 197 194 196 207 212 219 214 209 201 202 204 212 211 214 219 216 216 215 222 225 224 208 207 207 207 206 207 201 213 213 215 216 212 209 207
250 262 274 280 279 277 257 262 244 224 243 206 207 198 203 202 210 220 211 215 210 203 200 196 205 209 202 196 195 204 216 218 217 217 204 202 212 215 215 224 217 221 215 215 215 219 230 225 202 206 206 208 208 205 208 213 214 217 216 215 212 208
271 267 273 287 286 287 290 272 246 233 234 212 221 203 213 211 226 230 220 222 215 208 200 202 205 208 203 196 199 214 221 219 220 222 189 207 212 214 217 221 219 214 213 216 214 220 230 228 204 202 204 205 206 204 211 212 215 218 217 216 211 208
282 271 258 286 295 292 279 264 236 222 227 232 212 203 217 217 235 255 278 274 281 211 199 205 207 211 206 199 211 218 221 216 218 212 188 207 210 218 223 218 223 218 215 216 219 217 226 227 208 204 203 205 205 203 209 212 214 220 215 217 204 202
298 295 302 289 299 308 296 260 192 204 233 224 211 216 233 245 296 333 280 252 201 195 196 198 203 211 211 213 219 216 219 213 213 201 190 211 214 227 211 208 219 226 219 219 223 217 220 228 213 203 206 204 205 205 212 210 215 214 212 197 196 174
323 312 331 340 321 325 332 303 225 234 234 207 171 201 244 290 284 240 217 207 202 197 196 196 201 215 218 225 228 218 220 207 198 199 196 209 206 219 212 212 216 225 228 214 220 222 220 224 220 205 207 206 208 206 206 210 203 214 202 193 182 161
309 305 323 339 345 6 4 5 330 298 315 360 55 3 325 285 263 267 270 235 218 208 208 203 204 221 229 226 228 216 211 197 205 196 197 207 204 210 221 217 219 226 234 215 216 217 220 217 218 209 205 210 210 210 208 211 211 209 198 196 193 189
332 360 17 11 10 9 11 14 18 11 52 80 44 353 322 337 340 323 308 296 247 244 227 224 240 236 239 240 220 226 226 214 196 203 199 198 200 214 223 222 220 228 234 221 209 213 217 210 209 210 209 211 214 215 214 213 216 204 196 201 172 152
34 43 31 15 18 15 11 35 51 53 55 50 2 336 336 340 359 10 29 28 20 8 355 340 303 274 264 243 223 217 240 210 195 207 187 197 208 215 227 224 224 227 240 234 223 217 213 208 212 210 211 217 217 220 222 223 221 200 195 199 203 198
82 67 41 29 25 22 18 30 66 62 58 21 346 339 345 355 357 24 39 33 25 13 12 356 341 325 318 266 230 218 233 229 211 202 202 201 203 217 228 236 219 232 240 238 238 226 215 218 205 216 214 215 223 225 226 230 217 198 197 200 206 201
92 82 55 34 29 28 23 20 49 53 39 352 347 346 345 342 357 34 31 22 15 13 351 356 6 4 2 354 359 249 263 257 200 208 236 186 214 215 229 241 210 224 238 235 236 213 194 195 199 208 220 217 224 229 231 234 229 209 196 197 204 189
76 76 70 47 32 30 32 26 37 44 6 342 346 341 340 346 22 37 26 17 20 7 1 26 8 13 13 16 33 155 229 214 211 206 217 178 210 220 224 240 218 226 231 239 232 214 192 186 188 206 216 226 231 237 240 239 240 226 211 196 198 192
71 64 61 54 28 28 21 33 32 28 356 352 348 345 345 2 33 40 29 23 15 14 19 32 17 7 14 26 33 45 47 51 154 188 207 199 210 224 228 235 228 231 235 234 239 205 175 179 188 193 195 212 223 227 236 240 253 224 205 194 180 174
68 63 61 53 26 25 25 25 24 12 2 356 353 348 353 19 30 38 28 19 19 21 18 25 20 28 27 29 40 33 18 18 28 46 32 7 317 251 254 242 237 244 235 245 225 185 171 195 195 193 197 214 219 229 232 238 244 207 188 171 173 171
65 60 61 52 30 27 31 26 18 4 6 358 350 350 3 20 27 40 35 23 24 22 15 24 25 24 28 35 50 50 49 41 18 35 33 37 61 24 24 312 316 311 254 219 200 199 215 211 211 215 213 215 223 220 219 224 209 189 187 178 172 159
65 62 58 49 35 33 29 23 17 3 359 0 351 354 7 5 23 36 32 26 27 18 18 20 23 22 28 31 32 41 24 49 66 51 73 357 15 35 7 15 81 305 109 193 235 203 205 228 224 205 216 220 225 232 231 230 223 207 186 182 182 170
56 60 55 43 35 36 31 25 17 5 359 5 356 0 1 6 31 37 31 25 21 18 16 22 24 18 32 26 31 24 30 345 356 46 49 23 18 12 8 350 343 317 231 198 222 270 243 223 234 218 221 229 231 232 235 238 233 217 198 187 178 178
52 52 50 42 42 39 34 30 22 12 356 2 1 6 18 23 41 42 31 27 18 20 24 24 25 23 28 19 23 23 14 10 4 342 19 41 14 358 359 357 353 339 315 286 251 206 303 268 246 240 242 238 236 239 240 242 240 226 196 191 180 177
59 55 53 51 46 43 38 36 20 11 3 4 4 10 28 32 38 37 27 26 21 23 24 27 26 24 25 22 21 17 17 24 6 6 342 345 9 13 5 360 360 356 351 341 324 274 234 244 258 257 255 249 244 242 242 244 248 239 204 191 191 180
64 61 53 45 43 41 37 36 19 8 359 3 7 17 29 32 34 36 35 26 23 27 24 28 25 25 23 25 27 20 26 16 17 10 358 353 345 357 5 8 6 3 360 347 338 338 304 290 296 292 280 271 268 257 249 245 247 251 229 200 193 185
61 52 47 43 39 37 37 35 20 0 355 359 5 18 30 34 32 34 31 32 30 30 27 23 26 24 26 26 22 24 19 16 10 16 17 13 13 357 351 344 346 350 356 353 345 337 334 313 303 305 298 289 277 265 258 257 256 241 257 225 210 191
58 53 45 43 40 39 38 32 20 1 3 2 6 19 24 26 30 29 27 25 26 26 27 25 25 23 31 27 17 17 18 18 20 17 13 10 17 7 359 342 343 328 323 347 14 6 354 343 323 308 307 306 300 290 270 263 264 273 253 243 172 122